RH
8 8 9 11 13 13 13 17 29 26 23 22 22 22 24 55 80 85 70 50 28 30 30 23 24 20 23 25 25 28 16 28 26 20 16 14 14 14 16 17 18 17 13 12 7 9 12 11 8
8 9 9 11 13 13 20 46 44 35 26 26 20 23 26 37 45 55 85 52 30 32 28 25 22 24 22 28 26 26 14 31 30 22 16 14 16 18 19 20 19 14 10 8 7 13 13 9 6
7 8 9 10 11 13 32 49 49 47 28 26 24 22 24 27 28 34 47 35 27 31 28 26 26 28 21 31 30 24 17 29 29 20 12 12 16 18 20 19 14 10 10 7 7 14 16 10 7
6 6 8 9 10 13 23 68 54 52 27 30 30 19 24 24 26 27 41 29 29 34 31 26 25 36 22 30 33 24 20 28 26 12 9 11 12 15 14 12 9 10 7 7 7 7 11 11 7
6 6 6 7 9 11 15 23 53 30 29 26 31 23 23 24 26 29 43 26 24 34 32 32 30 41 27 26 34 27 20 23 24 15 8 8 10 10 8 7 8 8 6 7 6 6 6 7 6
51 15 5 6 8 10 13 18 24 19 25 29 30 32 22 25 27 28 46 33 25 26 28 28 34 28 52 26 32 32 22 17 25 16 8 8 8 7 6 6 6 6 6 6 6 6 6 5 5
54 53 30 7 6 8 27 74 28 14 19 25 30 34 27 26 27 28 41 46 40 33 27 27 36 35 27 34 30 33 27 19 22 19 8 7 6 6 5 5 5 5 5 6 5 5 6 6 6
47 44 48 48 19 7 14 14 15 11 17 22 32 33 32 22 27 28 32 44 49 44 33 27 36 38 39 23 29 35 30 25 23 20 9 8 6 6 5 4 4 5 5 5 5 5 5 5 6
28 31 33 40 52 48 23 10 10 12 13 22 30 32 27 22 26 28 32 38 43 42 31 29 29 40 35 33 20 30 32 31 24 26 13 8 7 6 5 5 4 4 4 5 5 5 5 6 6
2 3 7 12 22 44 52 38 9 9 12 22 32 31 29 30 30 28 30 34 39 35 31 30 28 40 36 30 18 18 30 31 32 29 24 11 8 7 6 5 5 4 4 5 6 5 5 6 6
2 2 2 2 4 14 34 48 41 12 9 14 24 32 29 33 34 27 30 32 34 31 32 30 29 42 34 31 19 17 25 29 33 31 30 24 13 9 7 6 6 6 5 4 5 5 6 6 6
3 3 4 4 3 2 4 15 40 42 12 10 18 25 32 22 33 31 28 30 30 31 33 30 32 46 34 33 22 18 24 27 28 31 31 31 27 14 10 8 7 7 6 6 5 5 5 5 5
4 4 4 4 4 4 3 2 4 27 41 15 13 20 22 18 26 34 29 29 30 30 33 32 36 48 46 31 29 18 26 28 30 32 33 32 33 28 17 12 10 8 7 7 7 6 6 5 6
4 5 4 4 4 4 5 6 4 3 8 40 27 18 19 26 20 29 34 29 31 32 33 33 36 46 50 36 30 21 19 31 28 34 34 34 33 34 33 23 14 12 9 8 7 8 8 7 7
8 8 8 6 8 7 7 6 5 5 4 5 39 33 20 19 28 26 36 34 33 34 35 33 35 42 51 46 33 24 18 27 28 35 35 34 34 36 38 34 28 15 12 10 10 8 8 8 8
13 16 11 10 12 11 11 8 7 7 6 6 6 33 38 26 20 28 36 41 35 35 33 34 34 40 49 49 37 28 19 22 27 35 37 36 32 34 37 39 37 29 16 14 13 11 10 9 9
14 14 13 9 19 20 17 14 8 10 9 8 6 6 25 37 28 22 32 42 42 40 37 34 34 37 46 50 44 32 22 20 26 31 39 37 35 37 36 36 37 36 29 19 16 15 15 14 12
20 20 16 14 13 16 16 15 14 14 14 11 8 5 4 18 34 30 27 39 51 45 43 36 37 40 45 54 50 40 28 22 25 31 37 40 38 40 38 36 35 34 45 33 23 20 20 21 22
9 10 12 16 14 14 13 12 11 13 13 12 8 8 5 4 12 29 30 30 46 59 56 38 40 45 45 54 48 46 36 28 27 31 36 44 39 40 41 36 36 36 39 50 32 26 27 40 41
8 19 14 16 8 10 14 10 10 8 8 8 8 8 6 4 4 9 27 25 36 47 54 53 45 52 48 55 56 49 38 31 30 32 35 42 38 37 43 39 34 35 34 40 38 33 42 45 54
24 100 84 81 37 14 58 45 12 10 10 9 7 6 5 5 4 4 8 26 27 47 49 47 48 60 55 61 62 56 50 36 34 34 34 35 41 41 44 45 40 39 35 43 44 32 48 52 51
53 86 83 62 51 48 96 95 57 17 19 9 8 7 6 4 4 4 4 6 32 26 50 51 41 54 69 66 66 58 53 50 43 40 40 40 46 42 42 43 40 40 38 34 46 43 36 54 51
65 72 35 92 100 98 39 92 18 29 28 49 22 12 6 5 5 4 4 4 7 35 29 50 51 42 70 75 71 63 55 55 55 50 51 46 45 43 42 44 41 38 38 32 36 48 39 41 55
93 60 86 89 59 81 84 100 27 80 99 97 100 100 98 45 18 8 5 4 5 9 34 39 52 44 56 82 79 68 62 61 62 58 51 51 47 43 46 47 45 43 46 42 36 39 46 38 45
87 89 87 89 82 88 100 100 97 97 97 98 94 100 100 86 7 5 5 4 4 6 20 46 52 51 44 85 86 74 65 69 63 66 59 62 56 44 45 47 48 47 45 51 46 43 38 40 41
51 95 100 99 98 70 100 98 100 100 96 100 100 91 95 98 50 12 5 4 3 4 9 35 49 46 41 45 77 78 70 70 71 63 64 64 55 48 48 52 52 52 50 52 55 46 47 46 47
65 72 66 89 71 48 55 98 98 97 100 100 100 86 54 57 76 38 14 7 4 4 8 25 42 39 37 44 53 76 72 65 72 64 68 68 53 54 48 50 49 49 50 50 51 52 50 52 54
94 100 76 96 96 97 59 100 100 100 100 100 94 85 98 72 53 54 26 8 5 3 5 13 40 60 74 45 46 68 77 68 67 70 73 66 57 57 53 44 50 46 47 48 48 48 48 47 50
43 60 72 91 99 93 73 88 100 89 100 87 92 98 99 66 63 50 36 14 5 5 4 7 30 36 69 35 50 58 80 84 67 68 83 65 59 56 49 49 48 47 42 44 49 50 50 49 49
35 30 34 66 84 84 74 42 87 98 100 74 63 77 100 67 38 21 14 8 10 15 6 6 10 42 43 29 57 57 78 87 80 71 87 74 59 55 50 50 50 50 51 44 37 48 51 52 52
Wind_Speed
25 25 25 25 23 19 15 10 5 24 27 27 19 14 11 22 20 23 19 17 9 7 4 7 3 5 7 10 12 14 15 7 3 5 7 8 9 9 7 7 7 7 7 11 12 15 19 20 21
26 27 27 28 25 20 4 17 19 28 29 19 20 18 14 20 22 26 21 16 14 11 9 6 4 4 6 8 10 12 12 6 2 5 7 9 9 9 8 8 7 7 10 14 15 18 20 20 21
27 28 29 30 27 20 12 12 15 26 26 21 21 21 20 24 28 24 17 17 15 13 12 7 7 4 5 6 9 10 10 5 1 4 6 8 8 7 8 7 7 10 14 15 17 18 19 19 20
29 30 31 31 28 23 20 16 34 33 29 21 26 22 26 24 26 18 20 20 17 13 12 10 11 6 5 5 7 9 8 4 1 3 4 7 8 8 10 10 11 14 15 15 17 17 18 17 17
29 31 32 33 30 26 25 33 41 35 21 22 23 27 29 23 22 21 28 21 18 16 13 12 12 10 7 5 7 7 6 2 1 1 3 5 8 9 9 10 12 14 14 15 15 15 17 17 16
30 31 34 33 31 28 27 30 42 40 30 29 24 26 30 25 26 24 29 24 22 18 17 14 15 15 12 8 7 8 5 1 1 1 3 6 8 9 10 10 11 11 12 12 13 13 13 13 12
30 34 34 34 33 33 27 22 43 43 34 31 28 28 32 33 26 27 30 29 27 21 20 17 14 17 15 11 8 8 7 2 3 2 3 6 8 9 10 12 11 10 9 9 9 9 9 8 9
35 34 34 34 34 34 35 41 45 45 32 32 32 31 39 33 27 28 31 31 31 27 24 20 16 17 16 15 11 10 8 5 4 4 4 6 8 9 10 11 10 8 6 6 5 6 6 6 5
40 41 38 37 36 35 36 38 42 45 41 34 37 33 43 34 27 33 32 32 32 29 26 24 21 18 20 16 15 12 9 8 5 5 5 8 8 9 9 9 8 7 6 5 5 4 4 4 4
35 38 38 38 40 40 41 40 45 47 46 42 37 38 42 34 29 36 35 35 35 32 29 26 24 21 22 18 15 14 12 9 8 8 8 8 10 10 9 8 7 6 5 5 5 5 4 4 5
31 33 32 37 40 46 46 50 44 46 49 46 42 40 44 39 37 38 38 39 39 36 32 27 26 23 24 23 17 16 15 13 9 9 10 9 11 10 10 9 7 5 5 4 4 4 5 5 4
36 35 37 36 38 41 47 51 48 49 50 50 48 49 48 47 43 42 43 44 43 39 35 31 27 25 27 26 22 19 18 17 13 11 11 11 11 12 11 10 9 7 5 4 3 3 3 4 3
43 45 47 46 45 43 44 48 51 48 49 52 52 53 55 54 45 46 46 47 47 43 38 34 30 27 28 29 27 24 22 20 17 14 12 11 12 12 13 13 11 10 8 7 5 4 3 4 3
53 54 54 55 54 53 51 50 51 43 45 55 57 53 56 56 51 45 47 49 49 45 41 37 33 29 29 31 31 28 26 25 21 18 15 14 13 14 14 14 13 12 11 9 8 6 5 4 3
61 62 60 59 58 59 60 63 55 49 44 53 59 61 58 59 56 49 48 49 51 49 45 40 35 33 32 29 33 31 30 28 26 23 20 17 15 15 16 16 14 14 13 12 11 10 8 7 6
65 67 68 62 64 64 65 69 61 59 55 53 56 63 62 59 60 56 52 50 53 53 51 45 41 38 35 31 35 34 34 32 30 27 24 21 18 17 17 18 17 16 15 14 13 12 11 10 9
67 70 69 68 63 65 65 71 67 64 66 63 58 60 66 64 61 59 56 54 54 56 56 50 45 42 39 33 33 38 37 35 33 29 27 24 22 20 18 19 20 19 17 16 15 14 12 12 11
66 68 72 72 70 66 70 70 72 69 70 73 68 64 63 67 62 58 59 57 57 59 61 54 49 47 42 41 37 41 39 38 34 32 29 28 25 22 21 21 22 21 19 17 15 15 13 12 11
59 60 66 69 68 66 67 71 73 71 76 77 78 70 66 66 64 61 62 63 62 62 62 61 54 51 47 47 41 34 40 37 36 34 31 29 27 25 24 22 22 23 23 20 18 16 14 13 13
43 43 46 50 62 67 66 74 78 76 75 76 78 76 72 67 66 64 64 66 64 62 65 65 59 55 52 48 44 34 41 41 40 40 35 31 31 28 26 24 23 24 25 25 21 18 17 17 15
35 29 34 36 38 45 48 57 72 83 83 84 82 80 75 70 68 64 65 62 68 66 67 71 67 61 57 51 45 42 43 48 46 43 39 34 34 31 28 28 26 26 27 27 26 24 21 19 17
34 30 33 36 36 37 27 37 43 61 66 77 79 84 81 76 72 69 65 67 69 75 70 73 73 65 61 56 49 47 42 43 39 39 39 36 34 35 31 31 30 28 28 26 28 29 26 24 20
34 27 28 28 31 32 35 34 32 30 37 40 59 78 84 84 81 76 72 64 70 73 76 73 78 70 65 61 54 51 47 45 42 41 42 40 37 38 34 33 34 28 27 28 27 30 30 28 26
19 17 21 22 21 22 9 17 19 17 27 30 31 33 35 53 76 83 85 74 70 67 71 77 79 77 70 64 59 57 51 49 45 43 42 41 40 40 37 33 33 32 29 31 28 30 31 30 28
18 19 17 19 21 17 15 19 19 21 29 34 36 40 43 47 76 83 84 85 79 67 66 74 80 82 75 69 66 62 56 52 49 45 44 43 43 42 36 33 32 34 32 30 30 29 28 28 26
19 17 20 24 18 21 15 2 23 15 32 34 36 43 44 43 53 69 81 86 85 75 62 71 78 82 76 71 70 67 63 53 52 45 46 46 45 42 39 38 36 35 35 32 33 29 30 27 25
24 22 27 29 24 21 16 12 23 28 35 36 39 44 48 49 49 52 67 76 85 84 74 79 79 80 78 75 73 70 66 58 55 47 47 47 46 44 42 39 36 35 35 35 34 33 30 29 27
21 22 18 24 22 19 25 20 23 18 16 13 26 37 47 41 39 50 53 63 78 84 80 78 88 79 67 77 76 74 69 62 58 51 48 50 47 45 44 37 38 34 33 34 34 32 31 29 26
23 26 20 21 26 27 26 24 10 19 27 26 23 20 23 52 48 46 51 51 58 72 79 76 83 88 78 76 76 77 71 67 62 54 50 52 48 48 46 44 38 37 32 32 34 31 31 30 29
26 28 27 29 31 34 35 32 30 22 28 26 27 24 19 25 32 40 44 48 54 60 71 75 77 86 88 81 76 79 77 71 66 58 53 54 50 50 48 47 44 41 40 39 35 33 32 32 30
Wind_Direction
240 237 235 237 242 241 241 268 251 253 241 245 243 244 227 199 204 226 249 255 260 243 235 290 344 359 14 9 1 348 346 8 149 144 130 118 114 110 111 106 96 85 81 105 101 101 104 101 98
244 241 239 238 240 244 207 337 261 250 252 239 240 236 221 228 228 228 229 245 240 242 242 262 293 337 10 20 6 351 355 7 139 148 126 109 108 111 112 106 93 91 115 115 105 108 104 102 101
243 245 242 241 237 236 176 209 224 250 241 244 238 231 230 220 235 227 231 239 243 249 248 241 269 301 343 12 7 353 358 19 50 128 124 118 112 108 113 109 99 106 122 112 102 104 106 105 107
248 244 245 245 242 231 202 238 243 246 242 242 241 235 238 230 241 237 237 239 243 245 258 252 264 280 311 338 351 358 360 32 59 102 133 127 116 111 114 111 105 121 123 111 103 101 106 104 101
252 249 244 244 243 237 233 228 249 250 255 244 240 237 239 235 236 223 232 239 238 242 265 271 261 266 286 298 318 348 359 23 104 82 139 138 124 119 113 113 118 126 123 110 103 101 100 99 99
256 253 250 245 241 235 234 238 252 253 249 253 244 244 241 237 229 228 230 232 237 246 254 273 273 265 264 273 293 318 339 350 176 119 137 142 131 125 120 117 120 121 119 108 102 99 98 102 105
253 253 254 250 242 238 217 241 250 248 244 243 246 246 247 241 232 225 229 235 239 242 251 264 272 259 261 262 264 290 308 263 187 166 161 146 141 135 128 122 118 120 121 116 110 106 103 104 103
250 251 254 254 252 240 237 232 238 244 245 242 245 242 246 240 231 230 231 233 240 243 248 256 263 270 250 259 252 264 287 271 186 188 176 167 157 150 141 130 127 130 134 130 124 121 117 108 103
249 251 255 254 253 249 242 241 245 247 244 245 242 236 242 246 231 233 231 234 239 243 249 253 259 269 255 249 258 249 266 272 225 187 201 177 174 171 160 148 145 150 161 160 149 144 147 132 117
254 255 255 254 251 246 245 240 238 240 239 238 238 243 247 243 238 239 233 235 239 243 248 252 254 257 248 239 250 257 255 260 251 198 201 199 187 182 179 171 164 153 162 176 157 143 135 118 113
256 257 257 255 252 250 245 245 238 239 239 240 242 241 243 235 234 232 233 234 239 242 245 244 249 250 239 237 233 241 250 258 246 230 200 202 202 191 191 191 184 176 158 174 156 144 131 117 101
256 256 258 258 258 256 254 250 242 239 238 239 237 236 239 235 230 227 229 233 236 242 243 241 246 245 240 231 231 227 236 251 261 240 221 206 207 203 199 202 205 195 187 187 170 173 158 136 131
261 260 260 260 261 260 257 256 253 241 242 240 241 240 241 241 228 232 228 231 235 238 239 239 242 243 248 236 230 229 228 239 247 253 240 229 215 215 212 204 214 219 208 207 203 196 185 166 163
265 263 263 262 262 263 262 257 256 246 242 240 239 241 243 243 240 232 234 231 235 237 237 238 239 244 249 243 235 231 227 231 236 244 246 239 233 227 223 218 214 225 232 228 225 222 220 219 220
268 266 262 262 261 259 257 255 257 252 245 242 239 239 237 240 241 230 232 232 234 237 236 236 237 241 245 246 239 232 229 228 232 237 243 244 236 241 234 225 220 222 230 241 243 240 234 239 246
270 267 264 259 258 258 255 256 255 253 247 245 240 240 239 238 240 237 226 230 229 235 236 234 233 238 243 246 240 236 230 229 232 234 240 240 240 238 242 237 226 223 225 231 241 248 249 247 250
267 266 263 260 256 254 254 255 252 251 251 247 242 237 240 237 236 238 234 228 227 231 237 234 234 234 239 241 241 236 230 229 232 232 238 241 242 237 236 242 239 226 223 226 232 239 247 251 253
263 260 257 256 250 247 246 247 246 247 252 250 243 239 238 239 235 234 236 231 228 227 234 232 232 232 232 236 240 237 230 229 230 236 234 241 243 239 238 236 241 237 226 225 228 236 242 249 257
276 271 264 256 253 257 255 254 248 245 245 246 246 239 236 238 236 233 231 231 229 229 234 236 229 231 230 233 239 240 237 231 232 235 235 236 241 242 245 238 239 239 239 227 228 235 242 247 256
276 272 266 264 257 258 257 253 250 246 243 250 250 245 237 236 239 233 231 232 232 232 231 234 233 231 232 232 238 237 235 229 229 233 233 231 240 240 241 244 238 239 239 238 232 234 235 244 258
281 279 277 275 266 257 251 251 249 248 249 247 247 244 240 236 240 238 234 231 231 229 227 235 232 230 231 233 235 236 231 228 228 232 233 232 236 239 236 242 240 237 239 236 237 235 238 245 252
283 278 277 268 271 267 252 262 256 250 247 246 248 248 243 239 236 239 235 233 231 230 226 228 233 230 231 231 233 235 237 235 237 238 243 236 233 241 238 240 241 236 244 240 238 240 240 242 248
277 273 287 276 271 270 267 258 271 264 257 255 249 248 244 238 238 236 237 232 233 234 231 226 233 229 227 231 232 233 237 235 232 232 236 236 234 239 240 238 245 240 244 249 240 241 246 245 248
288 282 281 300 299 279 333 271 274 274 255 246 232 232 232 235 239 234 230 231 227 230 233 230 228 232 226 225 231 231 235 236 233 234 236 240 234 237 240 239 245 246 238 247 245 242 242 249 251
276 282 290 287 283 274 258 249 245 235 245 244 233 224 227 232 234 233 233 231 221 223 228 230 229 228 228 222 228 230 232 237 237 238 236 239 236 237 239 238 240 247 247 242 248 242 240 247 251
278 262 286 283 282 266 276 315 247 247 243 240 230 229 227 227 231 233 233 232 227 218 219 232 228 231 230 224 224 228 231 232 236 243 237 238 235 234 233 236 236 241 244 241 241 240 235 237 247
272 266 250 258 264 269 249 243 259 261 264 261 255 247 248 241 241 238 234 233 230 219 220 219 226 232 227 227 224 224 229 231 233 240 239 237 233 232 234 235 235 236 238 243 241 244 239 237 241
268 275 258 264 261 268 252 242 269 275 301 253 274 267 247 246 236 237 236 234 233 224 215 225 222 215 239 224 224 224 225 230 232 235 237 235 233 233 234 229 231 236 239 244 247 246 247 245 245
265 266 257 260 259 261 253 229 296 311 311 305 297 305 258 246 245 235 235 236 232 230 221 220 226 223 222 218 223 223 224 226 230 231 235 233 231 230 229 230 224 234 236 241 245 247 247 247 245
263 263 253 253 249 250 257 235 265 278 299 311 310 301 283 253 254 240 230 231 232 226 222 219 222 225 228 219 217 224 224 226 229 228 229 231 228 228 228 228 230 230 235 240 242 245 247 249 251